This is the latest recevied weather packets stored in our database for station/object KC2WGU. If no packets are shown the sender has not sent any weather packets the latest 10 day(s).
| Time | Temp. | Humidity | Pressure | Rain* | Wind** | Luminosity | Snow |
|---|---|---|---|---|---|---|---|
| 1777504819 | 12.78° C | 91% | 1005.7 hPa | 0.76 mm | - | 0 W/m² | - |
| 1777504219 | 12.78° C | 90% | 1005.7 hPa | 0.25 mm | - | 0 W/m² | - |
| 1777503619 | 13.33° C | 89% | 1005.8 hPa | 0.25 mm | - | 0 W/m² | - |
| 1777503019 | 13.33° C | 89% | 1005.8 hPa | 0.25 mm | - | 0 W/m² | - |
| 1777502418 | 13.33° C | 89% | 1005.8 hPa | 0.76 mm | - | 0 W/m² | - |
| 1777501819 | 13.33° C | 89% | 1005.9 hPa | 1.02 mm | - | 0 W/m² | - |
| 1777501220 | 13.33° C | 89% | 1005.8 hPa | 0.76 mm | - | 0 W/m² | - |
| 1777500619 | 13.33° C | 89% | 1005.7 hPa | 0.76 mm | - | 0 W/m² | - |
| 1777500019 | 13.89° C | 89% | 1005.7 hPa | 1.02 mm | - | 0 W/m² | - |
| 1777499420 | 13.89° C | 88% | 1005.9 hPa | 1.02 mm | - | 0 W/m² | - |
| 1777498819 | 14.44° C | 87% | 1005.9 hPa | 0.51 mm | - | 0 W/m² | - |
| 1777498219 | 14.44° C | 86% | 1006.1 hPa | 0.25 mm | - | 0 W/m² | - |
| 1777497619 | 14.44° C | 85% | 1006.1 hPa | 0.25 mm | - | 0 W/m² | - |
| 1777497019 | 15.56° C | 81% | 1006.1 hPa | 0.25 mm | - | 0 W/m² | - |
| 1777496419 | 17.22° C | 72% | 1005.8 hPa | 0 mm | - | 0 W/m² | - |
| 1777495818 | 17.78° C | 68% | 1005.8 hPa | 0 mm | - | 0 W/m² | - |
| 1777495219 | 17.78° C | 68% | 1005.8 hPa | 0 mm | - | 0 W/m² | - |
| 1777494619 | 17.78° C | 68% | 1005.8 hPa | 0 mm | - | 0 W/m² | - |
| 1777494019 | 17.78° C | 68% | 1006 hPa | 0 mm | - | 0 W/m² | - |
| 1777493419 | 17.78° C | 68% | 1006.5 hPa | 0 mm | - | 0 W/m² | - |
| 1777492819 | 17.78° C | 68% | 1006.5 hPa | 0 mm | - | 0 W/m² | - |
| 1777492219 | 17.78° C | 67% | 1006.6 hPa | 0 mm | - | 0 W/m² | - |
| 1777491619 | 17.78° C | 66% | 1006.6 hPa | 0 mm | - | 0 W/m² | - |
| 1777491019 | 17.78° C | 66% | 1006.7 hPa | 0 mm | - | 0 W/m² | - |
| 1777490419 | 17.78° C | 64% | 1006.8 hPa | 0 mm | - | 0 W/m² | - |
* Rain latest hour (hover to see other rain measurements)
** Current wind speed in m/s (hover to see current wind gust speed)